{"data":{"norad_id":59612,"intl_designator":"2024-080M","name":"STARLINK-31748","alt_names":[],"object_type":"PAYLOAD","status":"ACTIVE","operator":null,"country":"US","launch_date":"2024-04-28","launch_site_code":"AFETR","launch_vehicle":null,"mission":null,"orbit_class":"UNKNOWN","rcs_meters":null,"size_class":null,"mass_kg":null,"dimensions":null,"purposes":["comms"],"wikipedia_slug":null,"has_3d_model":false,"image_url":null,"decayed_at":null,"tle_current":{"epoch":"2026-05-25T04:21:45.317664Z","epoch_age_seconds":55467,"freshness":"FRESH","line1":"1 59612U 24080M   26145.18177451  .00002268  00000+0  91892-4 0  9999","line2":"2 59612  43.0016 322.2475 0001101 272.1303  87.9422 15.27592634117448","mean_motion":15.27592634,"eccentricity":0.0001101,"inclination_deg":43.0016,"raan_deg":322.2475,"arg_perigee_deg":272.1303,"mean_anomaly_deg":87.9422,"bstar":9.1892e-5,"rev_number":11744,"period_min":94.265969077722,"perigee_km":482.25585313529,"apogee_km":483.76667798337,"semimajor_km":6861.1482655593,"source":"CELESTRAK","updated_at":"2026-05-25T13:38:19.009956Z"}}}